Date String (YYYY-MM-DD hh:mm:ss) UTC,Instrument flags,Ambient pressure (hPa),Sample flow (lpm),Bypass flow (lpm),Sample temperature (°C),Ambient temperature (°C),ASC tube jacket temperature (°C),LED temperature (°C),Box temperature (°C),Sample RH (%),Span deviation,Mass concentration (μg/m³),Mass concentration (μg/m³),Mass concentration (μg/m³)
DateTimeUTC,F1_M11,P_M11,Q1_M11,Q2_M11,T1_M11,T2_M11,T3_M11,T4_M11,T5_M11,U1_M11,ZSPAN_M11,X2_M11,X0_M11,X1_M11
2022-05-30 03:00:00,,0812.4,5.01,0.00,29.6,28.5,00.0,38.5,31.4,22.4,0000.0,0001.87,0003.74,0000.99
2022-05-30 03:01:00,,0812.5,5.00,0.00,29.6,28.5,00.0,38.5,31.4,22.5,0000.0,0001.81,0003.61,0000.99
2022-05-30 03:02:00,,0812.6,5.00,0.00,29.6,28.5,00.0,38.5,31.4,22.4,0000.0,0001.82,0003.63,0001.00
2022-05-30 03:03:00,,0812.6,5.01,0.00,29.6,28.5,00.0,38.5,31.4,22.3,0000.0,0001.87,0003.73,0001.01
2022-05-30 03:04:00,,0812.7,5.01,0.00,29.6,28.5,00.0,38.5,31.4,22.3,0000.0,0001.89,0003.80,0001.01
2022-05-30 03:05:00,,0812.6,5.00,0.00,29.6,28.5,00.0,38.5,31.4,22.3,0000.0,0001.89,0003.73,0001.03
2022-05-30 03:06:00,,0812.7,5.00,0.00,29.6,28.5,00.0,38.5,31.4,22.4,0000.0,0001.94,0003.85,0001.05
2022-05-30 03:07:00,,0812.6,4.99,0.00,29.6,28.5,00.0,38.5,31.4,22.5,0000.0,0001.93,0003.81,0001.05
2022-05-30 03:08:00,,0812.6,5.01,0.00,29.6,28.5,00.0,38.5,31.4,22.4,0000.0,0001.94,0004.42,0001.05
2022-05-30 03:09:00,,0812.7,4.99,0.00,29.6,28.5,00.0,38.5,31.4,22.4,0000.0,0001.90,0004.74,0001.05
2022-05-30 03:10:00,,0812.7,5.01,0.00,29.6,28.5,00.0,38.5,31.4,22.4,0000.0,0001.84,0004.56,0001.04
2022-05-30 03:11:00,,0812.7,5.00,0.00,29.6,28.5,00.0,38.5,31.4,22.4,0000.0,0001.86,0004.62,0001.03
2022-05-30 03:12:00,,0812.7,4.99,0.00,29.6,28.5,00.0,38.5,31.4,22.4,0000.0,0001.90,0004.70,0001.03
2022-05-30 03:13:00,,0812.7,4.99,0.00,29.6,28.5,00.0,38.5,31.4,22.5,0000.0,0001.91,0004.83,0001.03
2022-05-30 03:14:00,,0812.7,5.02,0.00,29.6,28.5,00.0,38.5,31.4,22.6,0000.0,0001.95,0005.12,0001.03
2022-05-30 03:15:00,,0813.0,5.00,0.00,29.6,28.5,00.0,38.5,31.4,22.6,0000.0,0001.95,0005.23,0001.03
2022-05-30 03:16:00,,0812.7,5.00,0.00,29.6,28.5,00.0,38.5,31.4,22.5,0000.0,0001.93,0005.27,0001.02
2022-05-30 03:17:00,,0812.7,5.00,0.00,29.6,28.5,00.0,38.5,31.4,22.4,0000.0,0001.85,0005.07,0001.00
2022-05-30 03:18:00,,0812.7,5.01,0.00,29.6,28.5,00.0,38.5,31.4,22.3,0000.0,0001.88,0005.16,0000.99
2022-05-30 03:19:00,,0812.6,4.99,0.00,29.6,28.5,00.0,38.5,31.4,22.1,0000.0,0001.91,0004.95,0000.99
2022-05-30 03:20:00,,0812.7,5.00,0.00,29.6,28.5,00.0,38.5,31.4,21.9,0000.0,0001.93,0004.26,0000.99
2022-05-30 03:21:00,,0812.7,5.00,0.00,29.6,28.5,00.0,38.5,31.4,22.0,0000.0,0001.93,0004.24,0001.00
2022-05-30 03:22:00,,0812.8,5.01,0.00,29.6,28.5,00.0,38.5,31.4,22.1,0000.0,0001.89,0004.09,0000.99
2022-05-30 03:23:00,,0812.8,5.00,0.00,29.6,28.5,00.0,38.5,31.4,22.0,0000.0,0001.84,0004.02,0000.98
2022-05-30 03:24:00,,0812.8,5.00,0.00,29.6,28.5,00.0,38.5,31.4,21.9,0000.0,0001.82,0003.97,0000.97
2022-05-30 03:25:00,,0812.8,4.99,0.00,29.6,28.5,00.0,38.5,31.4,22.0,0000.0,0001.75,0003.63,0000.95
2022-05-30 03:26:00,,0812.8,5.01,0.00,29.6,28.5,00.0,38.5,31.4,22.0,0000.0,0001.74,0003.42,0000.95
2022-05-30 03:27:00,,0812.8,5.00,0.00,29.6,28.5,00.0,38.5,31.4,22.0,0000.0,0001.73,0003.34,0000.95
2022-05-30 03:28:00,,0812.8,5.00,0.00,29.6,28.5,00.0,38.5,31.4,22.2,0000.0,0001.77,0003.42,0000.95
2022-05-30 03:29:00,,0812.8,4.99,0.00,29.6,28.5,00.0,38.6,31.4,22.5,0000.0,0001.81,0003.71,0000.96
2022-05-30 03:30:00,,0812.8,5.01,0.00,29.6,28.5,00.0,38.6,31.4,22.6,0000.0,0001.78,0003.59,0000.97
2022-05-30 03:31:00,,0812.8,4.98,0.00,29.6,28.6,00.0,38.6,31.4,22.7,0000.0,0001.76,0003.53,0000.97
2022-05-30 03:32:00,,0812.8,4.99,0.00,29.6,28.6,00.0,38.6,31.4,22.9,0000.0,0001.76,0003.55,0000.97
2022-05-30 03:33:00,,0812.9,5.01,0.00,29.6,28.6,00.0,38.6,31.4,23.0,0000.0,0001.82,0003.73,0000.98
2022-05-30 03:34:00,,0812.9,5.00,0.00,29.6,28.6,00.0,38.6,31.4,23.0,0000.0,0001.91,0003.99,0001.01
2022-05-30 03:35:00,,0813.0,5.01,0.00,29.6,28.6,00.0,38.6,31.4,23.1,0000.0,0001.91,0003.91,0001.02
2022-05-30 03:36:00,,0812.9,4.99,0.00,29.6,28.6,00.0,38.6,31.5,23.1,0000.0,0001.96,0004.00,0001.05
2022-05-30 03:37:00,,0812.9,4.99,0.00,29.6,28.6,00.0,38.6,31.5,23.1,0000.0,0001.96,0004.02,0001.09
2022-05-30 03:38:00,,0813.1,5.02,0.00,29.6,28.6,00.0,38.6,31.5,23.1,0000.0,0001.97,0004.02,0001.11
2022-05-30 03:39:00,,0812.9,5.00,0.00,29.6,28.6,00.0,38.6,31.4,23.1,0000.0,0001.98,0004.13,0001.12
2022-05-30 03:40:00,,0812.9,4.99,0.00,29.6,28.6,00.0,38.6,31.4,23.1,0000.0,0001.98,0004.05,0001.12
2022-05-30 03:41:00,,0812.9,5.00,0.00,29.6,28.5,00.0,38.6,31.5,23.0,0000.0,0002.01,0004.05,0001.13
2022-05-30 03:42:00,,0813.0,5.02,0.00,29.6,28.5,00.0,38.6,31.4,23.1,0000.0,0002.07,0004.25,0001.14
2022-05-30 03:43:00,,0812.8,4.99,0.00,29.6,28.5,00.0,38.6,31.4,24.0,0000.0,0002.07,0004.29,0001.15
2022-05-30 03:44:00,,0812.8,5.01,0.00,29.6,28.5,00.0,38.6,31.4,24.6,0000.0,0002.06,0004.23,0001.15
2022-05-30 03:45:00,,0812.8,5.02,0.00,29.6,28.5,00.0,38.6,31.4,24.0,0000.0,0001.99,0004.00,0001.14
2022-05-30 03:46:00,,0812.8,4.99,0.00,29.6,28.5,00.0,38.6,31.4,23.6,0000.0,0002.05,0004.07,0001.15
2022-05-30 03:47:00,,0812.8,5.01,0.00,29.6,28.5,00.0,38.6,31.4,23.5,0000.0,0002.07,0004.09,0001.14
2022-05-30 03:48:00,,0812.8,5.01,0.00,29.6,28.5,00.0,38.6,31.4,23.4,0000.0,0002.07,0004.12,0001.13
2022-05-30 03:49:00,,0812.8,5.00,0.00,29.6,28.5,00.0,38.6,31.4,23.4,0000.0,0002.15,0004.37,0001.13
2022-05-30 03:50:00,,0812.9,5.00,0.00,29.6,28.5,00.0,38.6,31.4,23.5,0000.0,0002.17,0004.43,0001.15
2022-05-30 03:51:00,,0812.9,5.00,0.00,29.6,28.5,00.0,38.6,31.4,23.5,0000.0,0002.21,0004.55,0001.16
2022-05-30 03:52:00,,0812.9,4.99,0.00,29.6,28.4,00.0,38.6,31.4,23.5,0000.0,0002.24,0004.54,0001.18
2022-05-30 03:53:00,,0813.2,4.99,0.00,29.6,28.4,00.0,38.6,31.4,23.5,0000.0,0002.27,0004.65,0001.19
2022-05-30 03:54:00,,0813.0,5.00,0.00,29.6,28.5,00.0,38.6,31.4,23.6,0000.0,0002.28,0004.73,0001.20
2022-05-30 03:55:00,,0813.1,5.01,0.00,29.6,28.5,00.0,38.6,31.4,23.5,0000.0,0002.36,0005.02,0001.22
2022-05-30 03:56:00,,0813.2,4.99,0.00,29.6,28.5,00.0,38.5,31.4,23.6,0000.0,0002.38,0005.11,0001.24
2022-05-30 03:57:00,,0813.1,5.00,0.00,29.6,28.4,00.0,38.5,31.4,23.8,0000.0,0002.36,0005.11,0001.26
2022-05-30 03:58:00,,0813.1,5.00,0.00,29.6,28.4,00.0,38.5,31.4,23.8,0000.0,0002.37,0005.19,0001.28
2022-05-30 03:59:00,,0813.2,5.00,0.00,29.6,28.4,00.0,38.5,31.4,23.9,0000.0,0002.41,0005.73,0001.29
